TimeEST,TemperatureF,Dew PointF,Humidity,Sea Level PressureIn,VisibilityMPH,Wind Direction,Wind SpeedMPH,Gust SpeedMPH,PrecipitationIn,Events,Conditions,WindDirDegrees,DateUTC
12:53 AM,71.1,69.1,93,29.96,9.0,South,6.9,-,N/A,,Overcast,170,2012-12-29 05:53:00
1:53 AM,71.1,69.1,93,29.94,10.0,South,6.9,-,N/A,,Mostly Cloudy,170,2012-12-29 06:53:00
2:53 AM,72.0,69.1,91,29.93,10.0,South,8.1,-,0.00,,Mostly Cloudy,180,2012-12-29 07:53:00
3:53 AM,72.0,69.1,91,29.93,10.0,South,6.9,-,N/A,,Mostly Cloudy,180,2012-12-29 08:53:00
4:53 AM,72.0,69.1,91,29.91,10.0,South,10.4,18.4,N/A,,Clear,190,2012-12-29 09:53:00
5:53 AM,72.0,69.1,91,29.94,10.0,SSW,8.1,-,N/A,,Partly Cloudy,210,2012-12-29 10:53:00
6:08 AM,71.6,69.8,94,29.95,10.0,SW,8.1,-,N/A,,Mostly Cloudy,220,2012-12-29 11:08:00
6:50 AM,71.6,69.8,94,29.97,10.0,SSW,9.2,-,N/A,,Partly Cloudy,210,2012-12-29 11:50:00
6:53 AM,71.6,69.8,94,29.97,10.0,SSW,6.9,-,N/A,,Partly Cloudy,210,2012-12-29 11:53:00
7:35 AM,73.4,69.8,88,29.98,9.0,SSW,8.1,-,N/A,,Mostly Cloudy,210,2012-12-29 12:35:00
7:53 AM,73.0,70.0,90,29.98,8.0,SSW,5.8,-,N/A,,Overcast,210,2012-12-29 12:53:00
8:53 AM,73.9,70.0,87,30.00,9.0,SSW,15.0,21.9,N/A,,Overcast,200,2012-12-29 13:53:00
9:00 AM,73.4,69.8,88,30.00,9.0,SSW,11.5,21.9,N/A,,Mostly Cloudy,210,2012-12-29 14:00:00
9:53 AM,75.0,71.1,87,30.01,9.0,SW,10.4,-,N/A,,Mostly Cloudy,230,2012-12-29 14:53:00
10:53 AM,75.9,72.0,87,30.01,10.0,SW,13.8,-,N/A,,Overcast,230,2012-12-29 15:53:00
11:11 AM,77.0,71.6,83,29.99,10.0,SW,12.7,24.2,N/A,,Overcast,220,2012-12-29 16:11:00
11:35 AM,78.8,71.6,78,29.98,10.0,SW,19.6,26.5,N/A,,Mostly Cloudy,230,2012-12-29 16:35:00
11:53 AM,78.1,71.1,79,29.97,10.0,SW,16.1,27.6,N/A,,Mostly Cloudy,220,2012-12-29 16:53:00
12:41 PM,80.6,71.6,74,29.93,10.0,SW,16.1,23.0,N/A,,Mostly Cloudy,230,2012-12-29 17:41:00
12:53 PM,82.9,70.0,65,29.93,10.0,SW,16.1,26.5,N/A,,Mostly Cloudy,220,2012-12-29 17:53:00
1:53 PM,84.0,66.9,56,29.91,10.0,SW,13.8,24.2,N/A,,Clear,230,2012-12-29 18:53:00
2:53 PM,82.0,68.0,62,29.91,10.0,West,11.5,19.6,N/A,,Overcast,260,2012-12-29 19:53:00
3:53 PM,81.0,68.0,65,29.91,10.0,West,18.4,23.0,N/A,,Overcast,270,2012-12-29 20:53:00
4:53 PM,78.1,68.0,71,29.92,10.0,West,12.7,-,N/A,,Scattered Clouds,270,2012-12-29 21:53:00
5:53 PM,75.2,66.2,73,29.94,10.0,West,11.5,-,N/A,,Scattered Clouds,280,2012-12-29 22:53:00
6:53 PM,72.0,61.0,68,29.98,10.0,West,9.2,-,N/A,,Clear,280,2012-12-29 23:53:00
7:53 PM,68.0,59.0,73,30.01,10.0,West,10.4,-,N/A,,Clear,280,2012-12-30 00:53:00
8:53 PM,64.0,55.9,75,30.05,10.0,WNW,9.2,-,N/A,,Clear,290,2012-12-30 01:53:00
9:53 PM,60.1,51.1,72,30.08,10.0,WNW,11.5,-,N/A,,Clear,290,2012-12-30 02:53:00
10:53 PM,57.0,48.9,74,30.11,10.0,West,11.5,-,N/A,,Clear,280,2012-12-30 03:53:00
11:53 PM,54.0,48.0,80,30.13,10.0,WNW,11.5,-,N/A,,Clear,300,2012-12-30 04:53:00